FW1396 Weather Reports


Display with metric or nautical units.
time (UTC)temp
F
wind
direction
speed
MPH
gust
MPH
rain 1hr
in
rain 24hr
in
rain mn
in
humidity
%
barometer
mb
20260508220521 76 226 7.0 12.0 0.00 0.00 0.00 52 992.0
20260508220020 76 244 5.0 10.0 0.00 0.00 0.00 51 992.0
20260508215520 76 262 5.0 11.0 0.00 0.00 0.00 52 992.1
20260508215021 76 257 8.0 11.0 0.00 0.00 0.00 52 992.1
20260508214750 76 264 6.0 10.0 0.00 0.00 0.00 51 992.2
20260508214019 76 259 4.0 9.0 0.00 0.00 0.00 50 992.2
20260508213750 76 269 4.0 6.0 0.00 0.00 0.00 52 992.2
20260508213250 76 200 5.0 7.0 0.00 0.00 0.00 52 992.3
20260508212518 76 200 5.0 10.0 0.00 0.00 0.00 52 992.3
20260508212018 76 274 3.0 11.0 0.00 0.00 0.00 52 992.4
20260508211518 76 266 6.0 11.0 0.00 0.00 0.00 54 992.5
20260508211018 76 244 5.0 11.0 0.00 0.00 0.00 53 992.6
20260508210518 76 226 5.0 13.0 0.00 0.00 0.00 50 992.6
20260508210016 76 243 10.0 13.0 0.00 0.00 0.00 51 992.6
20260508205749 76 252 8.0 13.0 0.00 0.00 0.00 52 992.7
20260508205019 76 262 6.0 13.0 0.00 0.00 0.00 52 992.6
20260508204517 76 210 5.0 11.0 0.00 0.00 0.00 51 992.8
20260508204250 76 258 5.0 9.0 0.00 0.00 0.00 53 992.8
20260508203516 76 258 5.0 10.0 0.00 0.00 0.00 53 992.8
20260508203016 76 241 4.0 10.0 0.00 0.00 0.00 53 993.0
20260508202516 76 227 6.0 9.0 0.00 0.00 0.00 52 993.0
20260508202014 76 262 5.0 11.0 0.00 0.00 0.00 52 993.2
20260508201515 76 241 6.0 11.0 0.00 0.00 0.00 51 993.2
20260508201014 77 252 6.0 11.0 0.00 0.00 0.00 52 993.3
20260508200746 76 309 2.0 10.0 0.00 0.00 0.00 56 993.3
20260508200017 76 258 9.0 12.0 0.00 0.00 0.00 51 993.3
20260508195513 76 247 10.0 12.0 0.00 0.00 0.00 53 993.4
20260508195014 76 231 6.0 13.0 0.00 0.00 0.00 52 993.5
20260508194514 76 204 6.0 13.0 0.00 0.00 0.00 52 993.5
20260508194014 75 204 8.0 12.0 0.00 0.00 0.00 53 993.7
20260508193513 75 204 8.0 12.0 0.00 0.00 0.00 53 993.8
20260508193013 75 247 7.0 16.0 0.00 0.00 0.00 53 993.9
20260508192744 75 255 9.0 16.0 0.00 0.00 0.00 53 993.9
20260508192013 75 243 6.0 12.0 0.00 0.00 0.00 55 994.0
20260508191512 75 272 5.0 9.0 0.00 0.00 0.00 53 994.1
20260508191243 75 257 5.0 10.0 0.00 0.00 0.00 53 994.1
20260508190512 75 262 6.0 14.0 0.00 0.00 0.00 54 994.2
20260508190021 75 250 7.0 14.0 0.00 0.00 0.00 54 994.3
20260508185744 75 192 7.0 13.0 0.00 0.00 0.00 54 994.2
20260508185012 74 250 7.0 10.0 0.00 0.00 0.00 52 994.4
20260508184742 74 250 7.0 10.0 0.00 0.00 0.00 52 994.4
20260508184013 0 235 6.0 5.0 0.00 0.00 0.00 994.4
20260508183510 75 235 6.0 12.0 0.00 0.00 0.00 53 994.5
20260508183010 75 226 6.0 14.0 0.00 0.00 0.00 53 994.6
20260508182510 74 214 6.0 14.0 0.00 0.00 0.00 52 994.7
20260508182009 74 240 8.0 15.0 0.00 0.00 0.00 55 994.8
20260508181509 74 248 6.0 15.0 0.00 0.00 0.00 53 994.9
20260508181008 74 261 11.0 15.0 0.00 0.00 0.00 55 995.0
20260508180738 74 274 4.0 13.0 0.00 0.00 0.00 55 995.1
20260508175508 73 245 9.0 14.0 0.00 0.00 0.00 56 995.1
20260508175009 73 252 6.0 10.0 0.00 0.00 0.00 56 995.3
20260508174507 73 252 6.0 12.0 0.00 0.00 0.00 56 995.5
20260508174007 73 255 7.0 12.0 0.00 0.00 0.00 56 995.6
20260508173738 73 262 7.0 12.0 0.00 0.00 0.00 56 995.6
20260508173007 73 266 6.0 9.0 0.00 0.00 0.00 57 995.8
20260508172506 73 269 8.0 12.0 0.00 0.00 0.00 57 995.8
20260508172006 73 238 7.0 12.0 0.00 0.00 0.00 57 995.9
20260508171506 72 252 9.0 13.0 0.00 0.00 0.00 56 995.9
20260508171005 72 238 9.0 13.0 0.00 0.00 0.00 56 996.1
20260508170505 72 324 5.0 14.0 0.00 0.00 0.00 59 996.1
20260508170006 72 265 7.0 14.0 0.00 0.00 0.00 60 996.3
20260508165736 72 272 6.0 11.0 0.00 0.00 0.00 62 996.3
20260508165005 72 259 4.0 13.0 0.00 0.00 0.00 61 996.5
20260508164505 72 244 7.0 14.0 0.00 0.00 0.00 62 996.6
20260508164005 71 216 5.0 14.0 0.00 0.00 0.00 62 996.7
20260508163505 71 244 6.0 12.0 0.00 0.00 0.00 62 996.8
20260508163018 71 258 8.0 13.0 0.00 0.00 0.00 62 996.8
20260508162505 71 271 6.0 14.0 0.00 0.00 0.00 62 996.8
20260508162006 70 255 10.0 14.0 0.00 0.00 0.00 61 996.8
20260508161505 70 210 7.0 13.0 0.00 0.00 0.00 61 996.9
20260508161006 70 250 4.0 11.0 0.00 0.00 0.00 61 996.8
20260508160504 70 212 9.0 12.0 0.00 0.00 0.00 61 996.9
20260508160004 70 230 8.0 12.0 0.00 0.00 0.00 61 997.0
20260508155504 69 255 7.0 14.0 0.00 0.00 0.00 61 997.1
20260508155002 69 244 10.0 14.0 0.00 0.00 0.00 62 997.0
20260508154502 69 261 5.0 12.0 0.00 0.00 0.00 62 997.1
20260508154234 69 257 6.0 13.0 0.00 0.00 0.00 63 997.1
20260508153736 69 244 8.0 13.0 0.00 0.00 0.00 64 997.0
20260508153003 68 244 8.0 11.0 0.00 0.00 0.00 64 997.1
20260508152503 67 262 7.0 11.0 0.00 0.00 0.00 66 997.1
20260508152002 67 262 7.0 11.0 0.00 0.00 0.00 66 997.2
20260508151507 67 257 8.0 12.0 0.00 0.00 0.00 68 997.2
20260508151002 67 257 8.0 12.0 0.00 0.00 0.00 68 997.4
20260508150500 67 250 5.0 11.0 0.00 0.00 0.00 69 997.5
20260508150000 66 275 7.0 11.0 0.00 0.00 0.00 68 997.5
20260508145501 66 250 5.0 11.0 0.00 0.00 0.00 70 997.5
20260508145000 65 254 6.0 11.0 0.00 0.00 0.00 70 997.6
20260508144501 64 258 6.0 9.0 0.00 0.00 0.00 74 997.7
20260508144000 64 248 6.0 9.0 0.00 0.00 0.00 74 997.7
20260508143513 63 245 4.0 6.0 0.00 0.00 0.00 78 997.7
20260508143000 62 213 3.0 6.0 0.00 0.00 0.00 78 997.9
20260508142500 62 271 3.0 6.0 0.00 0.00 0.00 80 997.8
20260508141458 59 182 1.0 4.0 0.00 0.00 0.00 82 997.9
20260508140958 59 182 2.0 4.0 0.00 0.00 0.00 84 998.1
20260508140500 58 182 1.0 3.0 0.00 0.00 0.00 85 998.2
20260508135957 57 182 0.0 2.0 0.00 0.00 0.00 87 998.4
20260508135457 57 182 1.0 2.0 0.00 0.00 0.00 90 998.5
20260508134958 56 182 0.0 0.0 0.00 0.00 0.00 89 998.4
20260508134457 55 182 0.0 0.0 0.00 0.00 0.00 90 998.4
20260508134229 54 182 0.0 2.0 0.00 0.00 0.00 90 998.4
20260508133458 53 182 1.0 2.0 0.00 0.00 0.00 91 998.4
20260508132958 0 179 0.0 0.0 0.00 0.00 0.00 998.5
20260508132457 0 0.0 0.0 0.00 0.00 0.00 998.6
20260508132228 0 0.0 0.0 0.00 0.00 0.00 998.6
20260508131459 0 0.0 0.0 0.00 0.00 0.00 998.6
20260508130954 0 0.0 0.0 0.00 0.00 0.00 998.7
20260508130452 48 179 0.0 1.0 0.00 0.00 0.00 96 998.6
20260508125950 48 179 0.0 1.0 0.00 0.00 0.00 96 998.6
20260508125453 47 179 0.0 2.0 0.00 0.00 0.00 95 998.6
20260508124950 47 76 0.0 2.0 0.00 0.00 0.00 95 998.6
20260508124452 47 76 1.0 2.0 0.00 0.00 0.00 95 998.6
20260508123949 46 190 0.0 0.0 0.00 0.00 0.00 96 998.6
20260508123450 45 265 0.0 0.0 0.00 0.00 0.00 95 998.6
20260508122950 45 265 0.0 0.0 0.00 0.00 0.00 95 998.6
20260508122448 0 0.0 0.0 0.00 0.00 0.00 998.7
20260508121949 0 0.0 0.0 0.00 0.00 0.00 998.7
20260508121447 0 0.0 0.0 0.00 0.00 0.00 998.8
20260508120945 0 0.0 0.0 0.00 0.00 0.00 998.7
20260508120444 0 0.0 0.0 0.00 0.00 0.00 998.8
20260508120215 43 265 0.0 1.0 0.00 0.00 0.00 94 998.8
20260508115442 43 265 0.0 2.0 0.00 0.00 0.00 94 998.8
20260508114942 43 265 1.0 2.0 0.00 0.00 0.00 94 998.7
20260508114713 42 265 0.0 0.0 0.00 0.00 0.00 93 998.7
20260508113943 42 265 0.0 0.0 0.00 0.00 0.00 92 998.6
20260508113442 0 0.0 0.0 0.00 0.00 0.00 998.6
20260508112942 0 0.0 0.0 0.00 0.00 0.00 998.5
20260508112440 0 0.0 0.0 0.00 0.00 0.00 998.4
20260508111939 0 0.0 0.0 0.00 0.00 0.00 998.4
20260508111439 0 0.0 0.0 0.00 0.00 0.00 998.2
20260508110937 0 0.0 0.0 0.00 0.00 0.00 998.2
20260508110436 0 0.0 0.0 0.00 0.00 0.00 998.0
20260508110205 0 0.0 0.0 0.00 0.00 0.00 998.1
20260508105434 0 0.0 0.0 0.00 0.00 0.00 998.1
20260508104932 0 0.0 0.0 0.00 0.00 0.00 998.0
20260508104702 42 265 0.0 0.0 0.00 0.00 0.00 92 998.0
20260508103930 42 265 0.0 0.0 0.00 0.00 0.00 92 998.0
20260508103429 42 265 0.0 0.0 0.00 0.00 0.00 92 998.0
20260508102930 42 265 0.0 0.0 0.00 0.00 0.00 92 998.0
20260508102431 42 265 0.0 0.0 0.00 0.00 0.00 92 998.0
20260508101929 42 265 0.0 0.0 0.00 0.00 0.00 92 998.0
20260508101430 43 265 0.0 0.0 0.00 0.00 0.00 92 998.0
20260508100928 43 265 0.0 0.0 0.00 0.00 0.00 92 998.0
20260508100429 43 265 0.0 0.0 0.00 0.00 0.00 92 998.0
20260508095929 43 265 0.0 0.0 0.00 0.00 0.00 92 998.1
20260508095428 43 265 0.0 0.0 0.00 0.00 0.00 92 998.0
20260508094928 43 265 0.0 0.0 0.00 0.00 0.00 92 998.1
20260508094429 43 265 0.0 0.0 0.00 0.00 0.00 92 998.1
20260508093927 0 0.0 0.0 0.00 0.00 0.00 998.1
20260508093426 0 0.0 0.0 0.00 0.00 0.00 998.1
20260508092925 43 265 0.0 0.0 0.00 0.00 0.00 92 998.2
20260508092423 43 265 0.0 0.0 0.00 0.00 0.00 92 998.2
20260508091924 43 265 0.0 0.0 0.00 0.00 0.00 92 998.2
20260508091656 43 265 0.0 0.0 0.00 0.00 0.00 92 998.1
20260508091153 43 265 0.0 0.0 0.00 0.00 0.00 92 998.0
20260508090424 43 265 0.0 0.0 0.00 0.00 0.00 92 997.9
20260508085922 43 265 0.0 0.0 0.00 0.00 0.00 92 997.8
20260508085424 43 265 0.0 0.0 0.00 0.00 0.00 92 997.9
20260508084922 44 265 0.0 1.0 0.00 0.00 0.00 92 997.7
20260508084653 44 265 0.0 1.0 0.00 0.00 0.00 92 997.7
20260508084156 0 0.0 0.0 0.00 0.00 0.00 997.7
20260508083423 0 0.0 0.0 0.00 0.00 0.00 997.9
20260508082921 0 0.0 0.0 0.00 0.00 0.00 997.8
20260508082419 44 265 0.0 0.0 0.00 0.00 0.00 92 997.8
20260508081918 44 265 0.0 1.0 0.00 0.00 0.00 92 997.9
20260508081417 44 265 0.0 1.0 0.00 0.00 0.00 92 997.9
20260508080918 44 265 0.0 1.0 0.00 0.00 0.00 92 998.0
20260508080648 44 265 0.0 1.0 0.00 0.00 0.00 92 998.0
20260508075918 44 265 0.0 1.0 0.00 0.00 0.00 92 998.0
20260508075649 44 265 0.0 2.0 0.00 0.00 0.00 91 998.2
20260508075150 44 265 0.0 2.0 0.00 0.00 0.00 91 998.1
20260508074417 44 265 0.0 2.0 0.00 0.00 0.00 91 998.1
20260508073914 44 265 0.0 0.0 0.00 0.00 0.00 90 998.2
20260508073417 0 0.0 0.0 0.00 0.00 0.00 998.4
20260508072915 0 0.0 0.0 0.00 0.00 0.00 998.5
20260508072414 0 0.0 0.0 0.00 0.00 0.00 998.5
20260508071913 44 265 0.0 0.0 0.00 0.00 0.00 90 998.7
20260508071411 44 265 0.0 0.0 0.00 0.00 0.00 90 998.7
20260508070911 44 265 0.0 0.0 0.00 0.00 0.00 90 998.7
20260508070411 44 265 0.0 0.0 0.00 0.00 0.00 90 998.8
20260508065911 45 265 0.0 0.0 0.00 0.00 0.00 90 998.9
20260508065411 45 265 0.0 0.0 0.00 0.00 0.00 90 998.9
20260508064912 45 265 0.0 0.0 0.00 0.00 0.00 90 999.0
20260508064411 45 265 0.0 0.0 0.00 0.00 0.00 90 999.1
20260508063910 45 265 0.0 0.0 0.00 0.00 0.00 90 999.1
20260508063411 45 265 0.0 0.0 0.00 0.00 0.00 90 999.1
20260508062909 45 265 0.0 0.0 0.00 0.00 0.00 90 999.0
20260508062409 45 265 0.0 0.0 0.00 0.00 0.00 90 999.2
20260508061911 45 265 0.0 0.0 0.00 0.00 0.00 89 999.2
20260508061641 45 265 0.0 0.0 0.00 0.00 0.00 89 999.2
20260508060909 45 265 0.0 0.0 0.00 0.00 0.00 89 999.2
20260508060409 45 265 0.0 0.0 0.00 0.00 0.00 89 999.2
20260508055908 46 265 0.0 0.0 0.00 0.00 0.00 89 999.2
20260508055410 46 265 0.0 0.0 0.00 0.00 0.00 89 999.3
20260508054910 46 265 0.0 0.0 0.00 0.00 0.00 89 999.3
20260508054411 46 265 0.0 0.0 0.00 0.00 0.00 89 999.3
20260508053908 46 265 0.0 0.0 0.00 0.00 0.00 88 999.3
20260508053410 46 265 0.0 0.0 0.00 0.00 0.00 88 999.4
20260508053141 46 265 0.0 0.0 0.00 0.00 0.00 89 999.4
20260508052408 46 265 0.0 0.0 0.00 0.00 0.00 88 999.3
20260508052138 46 265 0.0 0.0 0.00 0.00 0.00 88 999.4
20260508051408 47 265 0.0 0.0 0.00 0.00 0.00 88 999.4
20260508050908 47 265 0.0 0.0 0.00 0.00 0.00 88 999.4
20260508050407 47 265 0.0 0.0 0.00 0.00 0.00 88 999.4
20260508045908 47 265 0.0 0.0 0.00 0.00 0.00 88 999.4
20260508045409 47 265 0.0 0.0 0.00 0.00 0.00 87 999.5
20260508044908 47 265 0.0 0.0 0.00 0.00 0.00 87 999.4
20260508044409 47 265 0.0 0.0 0.00 0.00 0.00 87 999.3
20260508043907 47 265 0.0 0.0 0.00 0.00 0.00 87 999.3
20260508043408 47 265 0.0 0.0 0.00 0.00 0.00 87 999.3
20260508042908 48 265 0.0 0.0 0.00 0.00 0.00 87 999.3
20260508042410 48 265 0.0 0.0 0.00 0.00 0.00 86 999.3
20260508041907 48 265 0.0 0.0 0.00 0.00 0.00 86 999.3
20260508041407 48 265 0.0 0.0 0.00 0.00 0.00 86 999.2
20260508040906 48 265 0.0 0.0 0.00 0.00 0.00 86 999.2
20260508040406 49 265 0.0 0.0 0.00 0.00 0.00 86 999.1
20260508035907 49 265 0.0 0.0 0.00 0.00 0.00 86 999.1
20260508035406 49 265 0.0 0.0 0.00 0.00 0.00 86 999.3
20260508034907 49 265 0.0 0.0 0.00 0.00 0.00 85 999.2
20260508034406 49 265 0.0 2.0 0.00 0.00 0.00 85 999.3
20260508033907 49 265 0.0 2.0 0.00 0.00 0.00 85 999.3
20260508033406 50 265 0.0 3.0 0.00 0.00 0.00 85 999.3
20260508032905 50 265 1.0 3.0 0.00 0.00 0.00 85 999.3
20260508032405 50 265 2.0 2.0 0.00 0.00 0.00 84 999.3
20260508031905 51 265 1.0 2.0 0.00 0.00 0.00 84 999.3
20260508031407 51 265 2.0 2.0 0.00 0.00 0.00 83 999.3
20260508030906 51 265 1.0 2.0 0.00 0.00 0.00 82 999.2
20260508030405 51 265 1.0 2.0 0.00 0.00 0.00 81 999.2
20260508025904 51 265 0.0 0.0 0.00 0.00 0.00 80 999.0
20260508025406 52 265 0.0 0.0 0.00 0.00 0.00 80 999.1
20260508024906 52 265 0.0 0.0 0.00 0.00 0.00 80 998.9
20260508024404 52 265 0.0 0.0 0.00 0.00 0.00 79 998.9
20260508023904 52 265 0.0 0.0 0.00 0.00 0.00 79 998.7
20260508023404 53 265 0.0 0.0 0.00 0.00 0.00 79 998.7
20260508022905 53 265 0.0 2.0 0.00 0.00 0.00 79 998.7
20260508022405 53 265 0.0 2.0 0.00 0.00 0.00 78 998.7
20260508021905 54 265 1.0 2.0 0.00 0.00 0.00 78 998.5
20260508021406 54 265 0.0 0.0 0.00 0.00 0.00 77 998.3
20260508020904 55 265 1.0 1.0 0.00 0.00 0.00 76 998.2
20260508020404 55 265 1.0 2.0 0.00 0.00 0.00 76 998.3
20260508020136 55 265 1.0 2.0 0.00 0.00 0.00 76 998.3
20260508015402 56 265 2.0 2.0 0.00 0.00 0.00 75 998.2
20260508014902 56 265 2.0 2.0 0.00 0.00 0.00 75 998.2
20260508014403 56 265 1.0 2.0 0.00 0.00 0.00 74 998.1
20260508013902 56 265 1.0 2.0 0.00 0.00 0.00 74 998.1
20260508013403 0 265 1.0 1.0 0.00 0.00 0.00 998.1
20260508012402 0 0.0 0.0 0.00 0.00 0.00 998.0
20260508011900 59 265 1.0 2.0 0.00 0.00 0.00 69 998.0
20260508011359 59 265 1.0 3.0 0.00 0.00 0.00 69 998.0
20260508010900 60 265 2.0 3.0 0.00 0.00 0.00 67 997.9
20260508010357 61 265 2.0 2.0 0.00 0.00 0.00 65 998.0
20260508010130 61 265 1.0 2.0 0.00 0.00 0.00 63 997.9
20260508005358 62 265 2.0 2.0 0.00 0.00 0.00 60 997.8
20260508004857 64 265 2.0 2.0 0.00 0.00 0.00 58 997.8
20260508004630 65 265 2.0 2.0 0.00 0.00 0.00 55 997.7
20260508003859 66 265 0.0 1.0 0.00 0.00 0.00 53 997.6
20260508003627 66 265 0.0 4.0 0.00 0.00 0.00 50 997.6
20260508002857 66 265 2.0 4.0 0.00 0.00 0.00 48 997.6
20260508002358 66 265 2.0 4.0 0.00 0.00 0.00 46 997.5
20260508001858 66 265 3.0 4.0 0.00 0.00 0.00 46 997.5
20260508001627 67 265 0.0 2.0 0.00 0.00 0.00 46 997.6
20260508000856 67 265 0.0 4.0 0.00 0.00 0.00 46 997.6
20260508000354 67 265 2.0 4.0 0.00 0.00 0.00 45 997.6
20260508000127 68 265 0.0 2.0 0.00 0.00 0.00 46 997.6
20260507235355 68 265 0.0 2.0 0.00 0.00 0.00 46 997.6
20260507234855 68 265 1.0 4.0 0.00 0.00 0.00 46 997.5
20260507234356 68 265 3.0 4.0 0.00 0.00 0.00 44 997.5
20260507233856 68 265 1.0 2.0 0.00 0.00 0.00 42 997.6
20260507233625 68 265 1.0 2.0 0.00 0.00 0.00 42 997.6
20260507232855 68 265 1.0 4.0 0.00 0.00 0.00 41 997.7
20260507232354 68 265 2.0 4.0 0.00 0.00 0.00 41 997.6
20260507231855 68 265 1.0 4.0 0.00 0.00 0.00 40 997.6
20260507231354 68 259 2.0 4.0 0.00 0.00 0.00 41 997.6
20260507230854 68 271 2.0 5.0 0.00 0.00 0.00 40 997.6
20260507230354 68 271 1.0 5.0 0.00 0.00 0.00 40 997.6
20260507225855 69 266 2.0 4.0 0.00 0.00 0.00 40 997.6
20260507225354 69 235 2.0 3.0 0.00 0.00 0.00 40 997.6
20260507224854 69 272 1.0 6.0 0.00 0.00 0.00 40 997.6
20260507224354 69 272 4.0 7.0 0.00 0.00 0.00 40 997.7
20260507224125 69 262 5.0 7.0 0.00 0.00 0.00 40 997.6
20260507223625 69 254 1.0 2.0 0.00 0.00 0.00 43 997.7
20260507222852 69 254 2.0 2.0 0.00 0.00 0.00 40 997.7
20260507222354 68 254 1.0 6.0 0.00 0.00 0.00 40 997.8
20260507222124 68 252 3.0 11.0 0.00 0.00 0.00 40 997.9
20260507221353 68 255 5.0 11.0 0.00 0.00 0.00 39 997.9
20260507220853 68 243 6.0 9.0 0.00 0.00 0.00 39 997.9